Date,TemperatureHighF,TemperatureAvgF,TemperatureLowF,DewpointHighF,DewpointAvgF,DewpointLowF,HumidityHigh,HumidityAvg,HumidityLow,PressureMaxIn,PressureMinIn,WindSpeedMaxMPH,WindSpeedAvgMPH,GustSpeedMaxMPH,PrecipitationSumIn
2013-5-1,73.9,56.6,36.7,33.4,28.0,-31.6,64,37,19,30.44,30.32,8,2,14,0.00
2013-5-2,79.7,58.0,32.0,46.1,34.8,-31.6,76,46,5,30.44,30.29,9,3,14,0.00
2013-5-3,66.9,51.9,36.0,41.3,36.0,28.8,79,57,36,30.47,30.35,8,3,13,0.00
2013-5-4,70.0,53.8,38.5,46.7,35.1,19.7,90,55,23,30.35,27.31,9,3,13,0.00
2013-5-5,70.3,50.9,32.0,38.1,30.8,-31.6,86,52,5,30.29,30.17,7,2,12,0.00
2013-5-6,72.1,52.9,32.9,45.1,33.7,23.0,89,56,16,30.26,30.11,7,2,9,0.00
2013-5-7,79.7,62.7,42.6,51.6,44.2,37.1,90,57,23,30.14,30.06,7,3,12,0.00
2013-5-8,75.9,60.5,49.6,59.3,54.0,47.0,93,80,52,30.17,30.03,8,2,13,0.18
2013-5-9,70.9,60.0,32.0,58.0,54.6,-31.6,94,84,5,30.03,29.88,5,1,7,0.09
2013-5-10,79.3,63.5,48.0,58.6,52.2,46.4,95,70,38,29.97,29.91,6,2,10,0.05
2013-5-11,61.3,58.7,55.6,59.2,55.6,50.6,97,90,71,29.91,29.70,10,4,14,1.29
2013-5-12,68.0,54.5,32.0,56.9,45.0,-31.6,97,73,5,29.79,29.61,15,4,18,0.09
2013-5-13,54.1,43.6,32.0,33.0,27.9,-31.6,78,55,5,30.03,29.79,10,4,14,0.00
2013-5-14,56.8,45.5,36.3,34.4,29.8,27.1,74,56,34,30.03,29.97,8,3,12,0.00
2013-5-15,64.2,45.9,30.0,48.5,37.0,-31.6,93,75,5,30.03,29.67,14,3,17,0.14
2013-5-16,76.5,61.2,43.9,48.0,38.9,28.2,94,52,23,29.82,29.67,17,6,24,0.00
2013-5-17,63.5,49.4,32.0,42.9,37.0,-31.6,77,63,5,30.17,29.82,12,4,15,0.00
2013-5-18,72.5,57.4,38.8,45.0,39.1,32.9,82,54,28,30.29,30.17,7,2,12,0.00
2013-5-19,70.9,55.3,32.0,54.5,47.5,-31.6,94,77,5,30.32,30.17,9,2,12,0.18
2013-5-20,79.5,63.8,52.3,64.7,57.4,50.7,96,81,56,30.17,29.97,6,1,10,0.03
2013-5-21,88.3,65.5,32.0,68.5,57.5,-31.6,96,78,5,30.06,29.85,8,3,13,0.52
2013-5-22,73.2,58.4,32.0,65.5,55.1,-31.6,96,90,5,30.00,29.85,6,1,8,1.19
2013-5-23,70.9,61.7,53.8,67.3,60.1,52.3,98,95,86,29.91,29.79,10,4,14,1.26
2013-5-24,66.0,56.4,42.8,63.9,54.3,41.2,100,93,80,29.85,29.67,12,5,19,0.23
2013-5-25,49.5,41.3,35.6,46.3,40.1,35.1,98,96,84,29.85,29.73,14,8,20,0.34
2013-5-26,54.5,43.8,32.0,43.2,37.6,-31.6,99,81,5,30.08,29.73,16,8,23,0.13
2013-5-27,68.9,53.1,32.0,44.9,37.7,-31.6,95,62,5,30.17,30.08,10,3,18,0.00
2013-5-28,75.7,57.6,40.5,48.6,41.0,35.4,84,59,29,30.20,30.14,6,2,10,0.00
2013-5-29,74.7,61.2,54.1,64.5,57.0,48.3,93,86,69,30.14,30.00,6,1,11,0.78
2013-5-30,85.1,70.7,58.8,69.0,62.2,57.7,97,77,48,30.11,30.03,9,2,15,0.00
2013-5-31,90.5,76.0,59.9,70.4,62.3,57.6,95,66,38,30.11,29.97,7,2,13,0.00